ONEWEB-0140 (47286 NORAD) Tracking and Keplerian Element Data

This shows tracking and keplerian element data for the satellite.

Feedback or suggestion? Click here.




ElementValue
Catalog47286
NameONEWEB-0140
Epoch Orbit174
Epoch Day101.91668981
Epoch Year2021
RAAN6.888
Inclination87.9628
Eccentricity0.0001382
Argument of Perigee85.2433
Mean Anonmoly186.072
Mean Motion13.28640566
Decay Rate-0.00037132
L11 47286U 20100AE 21101.91668981 -.00037132 00000-0 -81567-1 0 9999
L22 47286 87.9628 6.8880 0001382 85.2433 186.0720 13.28640566 1745

Live tracking and technical data element details for ONEWEB-0140 (NORAD 47286). ONEWEB-0140 can be tracked NOW for your location showing map with azimuth and elevation plus other details from your city location.

Track the satellite on the map from your city or location and see movement details for azimuth, elevation, latitude, longitude, range, height, and movement on the map or in text.







IsCatalogInMostPopularTable: catalog: 47286, numindb: 32
Update: records affected: 1



GetName: 47286 ONEWEB-0140

Hit Count: updated at: Tue, 13 Apr 2021 04:46:49 GMT